COSMOS 1054

Satellite information

Favourite Embed

Satellite Type and Status

PAYLOADIN ORBIT

Key statistics

Satellite COSMOS 1054 at a glance.

Uptime

17079

Days in orbit

Revolutions

≈ 12.5

Per day

Orbit

LEO

Low Earth Orbit

Inclination

74.0

Latest

Satellite identification and parameters

Extended collection of information and parameters for COSMOS 1054.

Object identification

Identified? True

Debris? False

Object name: COSMOS 1054

International designator: 1978-109D

Object number (NORAD): 11131

Object ID (CCSDS): 11131

Country: COMMONWEALTH OF INDEPENDENT STATES (CIS)

Current information (Y/N): Y

RCS size: MEDIUM

Orbital parameters

Period: 115.264 minutes

Inclination: 74.0208 deg

SMA: 7845.532 km

Apoapsis: 1488.361 km

Periapsis: 1446.434 km

RAAN: 357.1157 deg

Eccentricy: 0.00267203

Argument of periapsis: 82.9424 deg

Mean anomaly: 34.6014 deg

Mean motion: 12.49306959 rev/day

Mean motion (dot): -0.00000014 rev/day2

B* drag term: 0.000011734733 1/REarth

Two-line elements (TLE)

Creation date: Sept. 8, 2025, 3:16 a.m.

Reference frame: TEME

Reference center: EARTH

Epoch: Sept. 7, 2025, 7 p.m. UTC

TLE line 0: 0 COSMOS 1054

TLE line 1: 1 11131U 78109D 25250.79196903 -.00000014 00000-0 11735-4 0 9997

TLE line 2: 2 11131 74.0208 357.1157 0026720 82.9424 34.6014 12.49306959132467

Live tracking on map

Real-time ground track for satellite COSMOS 1054.

In-orbit conjunctions

There are no conjunctions computed for COSMOS 1054, at the moment. Check back to stay up to date, as we update our databases every day.

Go to all conjunctions

Associated space launch

Military communications satellites

COSMOS 1054 was lifted into orbit during the mission ‘Kosmos-3M | Strela-1M 161-168’, on board a Kosmos-3M space rocket.

The launch took place on Dec. 5, 1978, 6:12 p.m. from 132/2.

For more information about the launch, click the button.

Launch to space Kosmos-3M | Strela-1M 161-168
Kosmos-3M | Strela-1M 161-168

Agency: N/A

Status: Launch Successful

Launch date: Dec. 5, 1978, 6:12 p.m. UTC

Rocket: Kosmos-3M

Launch pad: 132/2

Location: Plesetsk Cosmodrome, Russian Federation

...

Latest news about this satellite

There are no fresh news available about this satellite. Check back as we update our databases every day.


Newsletter sign-up

Weekly statistics, charts and insights to help you stay on top of the space industry.